Time,TemperatureF,DewpointF,PressureIn,WindDirection,WindDirectionDegrees,WindSpeedMPH,WindSpeedGustMPH,Humidity,HourlyPrecipIn,Conditions,Clouds,dailyrainin,SoftwareType,DateUTC
2013-02-11 00:21:00,50.0,35.0,29.95,North,0,0.0,-999.0,56,0.00,,,-99.99,,2013-02-11 08:21:00,
2013-02-11 00:31:00,50.0,35.0,29.95,North,0,0.0,-999.0,56,0.00,,,-99.99,,2013-02-11 08:31:00,
2013-02-11 00:42:00,50.0,35.0,29.95,North,0,0.0,-999.0,56,0.00,,,-99.99,,2013-02-11 08:42:00,
2013-02-11 00:52:00,50.0,35.0,29.95,North,0,0.0,-999.0,56,0.00,,,-99.99,,2013-02-11 08:52:00,
2013-02-11 01:21:00,48.0,35.0,29.96,North,0,0.0,-999.0,61,0.00,,,-99.99,,2013-02-11 09:21:00,
2013-02-11 01:31:00,48.0,35.0,29.96,North,0,0.0,-999.0,61,0.00,,,-99.99,,2013-02-11 09:31:00,
2013-02-11 01:41:00,48.0,35.0,29.96,North,0,0.0,-999.0,61,0.00,,,-99.99,,2013-02-11 09:41:00,
2013-02-11 01:51:00,48.0,35.0,29.96,North,0,0.0,-999.0,61,0.00,,,-99.99,,2013-02-11 09:51:00,
2013-02-11 02:21:00,51.0,37.0,29.97,North,10,3.0,-999.0,58,0.00,,,-99.99,,2013-02-11 10:21:00,
2013-02-11 02:31:00,51.0,37.0,29.97,North,10,3.0,-999.0,58,0.00,,,-99.99,,2013-02-11 10:31:00,
2013-02-11 02:41:00,51.0,37.0,29.97,North,10,3.0,-999.0,58,0.00,,,-99.99,,2013-02-11 10:41:00,
2013-02-11 02:51:00,51.0,37.0,29.97,North,10,3.0,-999.0,58,0.00,,,-99.99,,2013-02-11 10:51:00,
2013-02-11 04:22:00,50.0,34.0,29.96,North,0,0.0,-999.0,55,0.00,,,-99.99,,2013-02-11 12:22:00,
2013-02-11 04:32:00,50.0,34.0,29.96,North,0,0.0,-999.0,55,0.00,,,-99.99,,2013-02-11 12:32:00,
2013-02-11 04:42:00,50.0,34.0,29.96,North,0,0.0,-999.0,55,0.00,,,-99.99,,2013-02-11 12:42:00,
2013-02-11 04:52:00,50.0,34.0,29.96,North,0,0.0,-999.0,55,0.00,,,-99.99,,2013-02-11 12:52:00,
2013-02-11 05:21:00,48.0,35.0,29.97,North,0,0.0,-999.0,61,0.00,,,-99.99,,2013-02-11 13:21:00,
2013-02-11 05:32:00,48.0,35.0,29.97,North,0,0.0,-999.0,61,0.00,,,-99.99,,2013-02-11 13:32:00,
2013-02-11 05:41:00,48.0,35.0,29.97,North,0,0.0,-999.0,61,0.00,,,-99.99,,2013-02-11 13:41:00,
2013-02-11 05:51:00,48.0,35.0,29.97,North,0,0.0,-999.0,61,0.00,,,-99.99,,2013-02-11 13:51:00,
2013-02-11 06:21:00,48.0,37.0,29.99,North,0,0.0,-999.0,65,0.00,,,-99.99,,2013-02-11 14:21:00,
2013-02-11 06:32:00,48.0,37.0,29.99,North,0,0.0,-999.0,65,0.00,,,-99.99,,2013-02-11 14:32:00,
2013-02-11 06:42:00,48.0,37.0,29.99,North,0,0.0,-999.0,65,0.00,,,-99.99,,2013-02-11 14:42:00,
2013-02-11 06:52:00,48.0,37.0,29.99,North,0,0.0,-999.0,65,0.00,,,-99.99,,2013-02-11 14:52:00,
2013-02-11 07:22:00,48.0,37.0,30.02,North,0,0.0,-999.0,65,0.00,,,-99.99,,2013-02-11 15:22:00,
2013-02-11 07:32:00,48.0,37.0,30.02,North,0,0.0,-999.0,65,0.00,,,-99.99,,2013-02-11 15:32:00,
2013-02-11 07:42:00,48.0,37.0,30.02,North,0,0.0,-999.0,65,0.00,,,-99.99,,2013-02-11 15:42:00,
2013-02-11 07:51:00,48.0,37.0,30.02,North,0,0.0,-999.0,65,0.00,,,-99.99,,2013-02-11 15:51:00,
2013-02-11 08:22:00,51.0,32.0,30.04,North,0,0.0,-999.0,48,0.00,,,-99.99,,2013-02-11 16:22:00,
2013-02-11 08:32:00,51.0,32.0,30.04,North,0,0.0,-999.0,48,0.00,,,-99.99,,2013-02-11 16:32:00,
2013-02-11 08:42:00,51.0,32.0,30.04,North,0,0.0,-999.0,48,0.00,,,-99.99,,2013-02-11 16:42:00,
2013-02-11 08:52:00,51.0,32.0,30.04,North,0,0.0,-999.0,48,0.00,,,-99.99,,2013-02-11 16:52:00,
2013-02-11 09:21:00,57.0,27.0,30.06,North,360,2.0,-999.0,32,0.00,,,-99.99,,2013-02-11 17:21:00,
2013-02-11 09:32:00,57.0,27.0,30.06,North,360,2.0,-999.0,32,0.00,,,-99.99,,2013-02-11 17:32:00,
2013-02-11 09:42:00,57.0,27.0,30.06,North,360,2.0,-999.0,32,0.00,,,-99.99,,2013-02-11 17:42:00,
2013-02-11 09:52:00,57.0,27.0,30.06,North,360,2.0,-999.0,32,0.00,,,-99.99,,2013-02-11 17:52:00,
2013-02-11 10:21:00,59.0,25.0,30.07,North,350,13.0,-999.0,27,0.00,,,-99.99,,2013-02-11 18:21:00,
2013-02-11 10:32:00,59.0,25.0,30.07,North,350,13.0,-999.0,27,0.00,,,-99.99,,2013-02-11 18:32:00,
2013-02-11 10:42:00,59.0,25.0,30.07,North,350,13.0,-999.0,27,0.00,,,-99.99,,2013-02-11 18:42:00,
2013-02-11 10:52:00,59.0,25.0,30.07,North,350,13.0,-999.0,27,0.00,,,-99.99,,2013-02-11 18:52:00,
2013-02-11 11:21:00,61.0,23.0,30.08,NNE,20,5.0,-999.0,23,0.00,,,-99.99,,2013-02-11 19:21:00,
2013-02-11 11:31:00,61.0,23.0,30.08,NNE,20,5.0,-999.0,23,0.00,,,-99.99,,2013-02-11 19:31:00,
2013-02-11 11:41:00,61.0,23.0,30.08,NNE,20,5.0,-999.0,23,0.00,,,-99.99,,2013-02-11 19:41:00,
2013-02-11 11:51:00,61.0,23.0,30.08,NNE,20,5.0,-999.0,23,0.00,,,-99.99,,2013-02-11 19:51:00,
2013-02-11 12:21:00,62.0,19.0,30.06,North,360,6.0,-999.0,19,0.00,,,-99.99,,2013-02-11 20:21:00,
2013-02-11 12:31:00,62.0,19.0,30.06,North,360,6.0,-999.0,19,0.00,,,-99.99,,2013-02-11 20:31:00,
2013-02-11 12:41:00,62.0,19.0,30.06,North,360,6.0,-999.0,19,0.00,,,-99.99,,2013-02-11 20:41:00,
2013-02-11 12:52:00,62.0,19.0,30.06,North,360,6.0,-999.0,19,0.00,,,-99.99,,2013-02-11 20:52:00,
2013-02-11 13:21:00,63.0,16.0,30.04,NNE,20,11.0,-999.0,16,0.00,,,-99.99,,2013-02-11 21:21:00,
2013-02-11 13:31:00,63.0,16.0,30.04,NNE,20,11.0,-999.0,16,0.00,,,-99.99,,2013-02-11 21:31:00,
2013-02-11 13:41:00,63.0,16.0,30.04,NNE,20,11.0,-999.0,16,0.00,,,-99.99,,2013-02-11 21:41:00,
2013-02-11 13:51:00,63.0,16.0,30.04,NNE,20,11.0,-999.0,16,0.00,,,-99.99,,2013-02-11 21:51:00,
2013-02-11 14:21:00,64.0,12.0,30.03,NE,50,6.0,-999.0,13,0.00,,,-99.99,,2013-02-11 22:21:00,
2013-02-11 14:32:00,64.0,12.0,30.03,NE,50,6.0,-999.0,13,0.00,,,-99.99,,2013-02-11 22:32:00,
2013-02-11 14:41:00,64.0,12.0,30.03,NE,50,6.0,-999.0,13,0.00,,,-99.99,,2013-02-11 22:41:00,
2013-02-11 14:52:00,64.0,12.0,30.03,NE,50,6.0,-999.0,13,0.00,,,-99.99,,2013-02-11 22:52:00,
2013-02-11 15:21:00,63.0,11.0,30.03,ENE,60,14.0,-999.0,13,0.00,,,-99.99,,2013-02-11 23:21:00,
2013-02-11 15:32:00,63.0,11.0,30.03,ENE,60,14.0,-999.0,13,0.00,,,-99.99,,2013-02-11 23:32:00,
2013-02-11 15:41:00,63.0,11.0,30.03,ENE,60,14.0,-999.0,13,0.00,,,-99.99,,2013-02-11 23:41:00,
2013-02-11 15:52:00,63.0,11.0,30.03,ENE,60,14.0,-999.0,13,0.00,,,-99.99,,2013-02-11 23:52:00,
2013-02-11 16:21:00,63.0,8.0,30.05,NNE,30,10.0,-999.0,11,0.00,,,-99.99,,2013-02-12 00:21:00,
2013-02-11 16:32:00,63.0,8.0,30.05,NNE,30,10.0,-999.0,11,0.00,,,-99.99,,2013-02-12 00:32:00,
2013-02-11 16:42:00,63.0,8.0,30.05,NNE,30,10.0,-999.0,11,0.00,,,-99.99,,2013-02-12 00:42:00,
2013-02-11 16:51:00,63.0,8.0,30.05,NNE,30,10.0,-999.0,11,0.00,,,-99.99,,2013-02-12 00:51:00,
2013-02-11 17:21:00,61.0,8.0,30.07,ENE,60,8.0,-999.0,12,0.00,,,-99.99,,2013-02-12 01:21:00,
2013-02-11 17:31:00,61.0,8.0,30.07,ENE,60,8.0,-999.0,12,0.00,,,-99.99,,2013-02-12 01:31:00,
2013-02-11 17:42:00,61.0,8.0,30.07,ENE,60,8.0,-999.0,12,0.00,,,-99.99,,2013-02-12 01:42:00,
2013-02-11 17:51:00,61.0,8.0,30.07,ENE,60,8.0,-999.0,12,0.00,,,-99.99,,2013-02-12 01:51:00,
2013-02-11 18:21:00,59.0,8.0,30.09,North,0,0.0,-999.0,13,0.00,,,-99.99,,2013-02-12 02:21:00,
2013-02-11 18:31:00,59.0,8.0,30.09,North,0,0.0,-999.0,13,0.00,,,-99.99,,2013-02-12 02:31:00,
2013-02-11 18:41:00,59.0,8.0,30.09,North,0,0.0,-999.0,13,0.00,,,-99.99,,2013-02-12 02:41:00,
2013-02-11 18:52:00,59.0,8.0,30.09,North,0,0.0,-999.0,13,0.00,,,-99.99,,2013-02-12 02:52:00,
2013-02-11 19:21:00,56.0,9.0,30.11,North,0,0.0,-999.0,15,0.00,,,-99.99,,2013-02-12 03:21:00,
2013-02-11 19:31:00,56.0,9.0,30.11,North,0,0.0,-999.0,15,0.00,,,-99.99,,2013-02-12 03:31:00,
2013-02-11 19:41:00,56.0,9.0,30.11,North,0,0.0,-999.0,15,0.00,,,-99.99,,2013-02-12 03:41:00,
2013-02-11 19:51:00,56.0,9.0,30.11,North,0,0.0,-999.0,15,0.00,,,-99.99,,2013-02-12 03:51:00,
2013-02-11 20:21:00,53.0,15.0,30.12,North,0,0.0,-999.0,22,0.00,,,-99.99,,2013-02-12 04:21:00,
2013-02-11 20:31:00,53.0,15.0,30.12,North,0,0.0,-999.0,22,0.00,,,-99.99,,2013-02-12 04:31:00,
2013-02-11 20:41:00,53.0,15.0,30.12,North,0,0.0,-999.0,22,0.00,,,-99.99,,2013-02-12 04:41:00,
2013-02-11 20:51:00,53.0,15.0,30.12,North,0,0.0,-999.0,22,0.00,,,-99.99,,2013-02-12 04:51:00,
2013-02-11 21:21:00,52.0,13.0,30.13,North,0,0.0,-999.0,21,0.00,,,-99.99,,2013-02-12 05:21:00,
2013-02-11 21:31:00,52.0,13.0,30.13,North,0,0.0,-999.0,21,0.00,,,-99.99,,2013-02-12 05:31:00,
2013-02-11 21:42:00,52.0,13.0,30.13,North,0,0.0,-999.0,21,0.00,,,-99.99,,2013-02-12 05:42:00,
2013-02-11 21:52:00,52.0,13.0,30.13,North,0,0.0,-999.0,21,0.00,,,-99.99,,2013-02-12 05:52:00,
2013-02-11 22:21:00,50.0,16.0,30.15,North,0,0.0,-999.0,25,0.00,,,-99.99,,2013-02-12 06:21:00,
2013-02-11 22:31:00,50.0,16.0,30.15,North,0,0.0,-999.0,25,0.00,,,-99.99,,2013-02-12 06:31:00,
2013-02-11 22:42:00,50.0,16.0,30.15,North,0,0.0,-999.0,25,0.00,,,-99.99,,2013-02-12 06:42:00,
2013-02-11 22:51:00,50.0,16.0,30.15,North,0,0.0,-999.0,25,0.00,,,-99.99,,2013-02-12 06:51:00,
2013-02-11 23:21:00,48.0,16.0,30.15,SW,230,4.0,-999.0,27,0.00,,,-99.99,,2013-02-12 07:21:00,
2013-02-11 23:31:00,48.0,16.0,30.15,SW,230,4.0,-999.0,27,0.00,,,-99.99,,2013-02-12 07:31:00,
2013-02-11 23:41:00,48.0,16.0,30.15,SW,230,4.0,-999.0,27,0.00,,,-99.99,,2013-02-12 07:41:00,
2013-02-11 23:51:00,48.0,16.0,30.15,SW,230,4.0,-999.0,27,0.00,,,-99.99,,2013-02-12 07:51:00,